Regional Weather Roundup
Issued by NWS

Home | Current Version | Previous Version | Graphics & Text | Print | Product List | Glossary On
Versions: 1 2 3 4 5 6 7 8 9 10 11 12 13 14 15 16 17 18 19 20 21 22 23 24 25 26 27 28 29 30 31 32 33 34 35 36 37 38 39 40 41 42 43 44 45 46 47 48 49 50
000
ASUS44 KMEG 241310
RWRTN
TENNESSEE HOURLY STATE WEATHER ROUNDUP
NATIONAL WEATHER SERVICE MEMPHIS TN
800 AM CDT WED AUG 24 2016

TNZ002-004-019-021-049-052-054-088>092-241400-
WEST TENNESSEE

CITY           SKY/WX    TMP DP  RH WIND       PRES   REMARKS
MEMPHIS INTL   MOSUNNY   82  75  79 S3        30.18R
NWS MEMPHIS      N/A     79 N/A N/A MISG        N/A
JACKSON        MOSUNNY   76  74  93 CALM      30.19R
DYERSBURG      MOSUNNY   81  72  74 MISG      30.17S
UNION CITY     SUNNY     75  75 100 S5        30.16S
PARIS          SUNNY     75  72  88 S6        30.19S
$$

TNZ008-025-027-028-033-062-065-066-241400-
NORTH MIDDLE TENNESSEE

CITY           SKY/WX    TMP DP  RH WIND       PRES   REMARKS
NASHVILLE      CLOUDY    75  70  84 SE3       30.23R
CLARKSVILLE    MOSUNNY   75  71  87 CALM      30.19S
SMYRNA         SUNNY     73  70  88 MISG      30.23R
COOKEVILLE     SUNNY     75  70  83 S5        30.25R
CROSSVILLE     MOSUNNY   74  67  78 VRB3      30.31R
$$

TNZ061-075-076-078-094-096-097-241400-
SOUTH MIDDLE TENNESSEE

CITY           SKY/WX    TMP DP  RH WIND       PRES   REMARKS
FAYETTEVILLE   SUNNY     73  70  88 CALM      30.25R
TULLAHOMA      SUNNY     73  70  88 S3        30.26S
WINCHESTER     SUNNY     75  72  88 SE3       30.25S
MCMINNVILLE    SUNNY     73  73 100 CALM      30.26R
COLUMBIA       SUNNY    N/A N/A N/A CALM      30.22R
SHELBYVILLE    SUNNY     75  72  88 E3        30.25R
$$

TNZ017-018-042-046-047-241400-
NORTHEAST TENNESSEE

CITY           SKY/WX    TMP DP  RH WIND       PRES   REMARKS
TRI CITIES     CLOUDY    68  63  84 CALM      30.32S
ELIZABETHTON   CLOUDY    70  64  83 VRB3      30.32S
$$

TNZ012-013-036-069-073-074-241400-
CENTRAL EAST TENNESSEE

CITY           SKY/WX    TMP DP  RH WIND       PRES   REMARKS
KNOXVILLE      NOT AVBL
OAK RIDGE      CLOUDY    71  67  87 CALM      30.29R
GATLINBURG     PTSUNNY   72  66  83 CALM      30.27S
MORRISTOWN     CLOUDY    72  68  88 NE3       30.29R
$$

TNZ083-085-099-241400-
SOUTHEAST TENNESSEE

CITY           SKY/WX    TMP DP  RH WIND       PRES   REMARKS
CHATTANOOGA    CLOUDY    77  69  76 CALM      30.26S
$$

SKY/WX REPORTED AS FAIR MEANS FEW OR NO CLOUDS BELOW
12 THOUSAND FEET.





USA.gov is the U.S. government's official web portal to all federal, state and local government web resources and services.